Location: Augustenthal
(51.7167°N, 10.2833°E)
Time: 04:49:17
(UTC+00:00)

Cosmos 2218 Rocket - Pass Details

Date: 18 May 2021
Orbit: 957 x 1005 km, 82.9° (Epoch: 14 June)

Event Time Altitude Azimuth Distance (km) Brightness Sun altitude
Rises 21:44:48 0° 347° (NNW) 3,702 8.8 -15.8°
Reaches altitude 10° 21:47:20 10° 345° (NNW) 2,756 7.7 -16.0°
Maximum altitude 21:53:34 64° 266° (W) 1,100 4.3 -16.3°
Enters shadow 21:58:02 20° 190° (S) 2,120 5.3 -16.6°
